Location: Complexul Astronomic Baia Mare
(47.6577°N, 23.5639°E)
Time: 06:47:04
(UTC+03:00)

ISS - Pass Details

Date: 15 May 2017
Orbit: 402 x 408 km, 51.6° (Epoch: 29 May)

Event Time Altitude Azimuth Distance (km) Brightness Sun altitude
Exits shadow 02:48:47 35° 99° (E) 678 -2.7 -20.7°
Drops below altitude 10° 02:51:01 10° 73° (ENE) 1,465 -0.5 -20.6°
Sets 02:53:08 0° 68° (ENE) 2,327 0.7 -20.4°
